Date String (YYYY-MM-DD hh:mm:ss) UTC,Instrument flags,Ambient pressure (hPa),Sample flow (lpm),Bypass flow (lpm),Sample temperature (°C),Ambient temperature (°C),ASC tube jacket temperature (°C),LED temperature (°C),Box temperature (°C),Sample RH (%),Span deviation,Mass concentration (μg/m³),Mass concentration (μg/m³),Mass concentration (μg/m³)
DateTimeUTC,F1_M11,P_M11,Q1_M11,Q2_M11,T1_M11,T2_M11,T3_M11,T4_M11,T5_M11,U1_M11,ZSPAN_M11,X0_M11,X2_M11,X1_M11
2022-07-06 19:00:00,,0828.3,5.00,0.00,30.6,27.4,00.0,39.0,31.8,33.8,0000.0,0011.60,0005.07,0004.12
2022-07-06 19:01:00,,0828.3,5.00,0.00,30.5,27.6,00.0,39.0,31.7,33.6,0000.0,0011.40,0005.05,0004.11
2022-07-06 19:02:00,,0828.3,5.00,0.00,30.4,27.7,00.0,38.9,31.8,33.7,0000.0,0011.06,0004.98,0004.09
2022-07-06 19:03:00,,0828.3,4.99,0.00,30.4,27.9,00.0,38.9,31.8,34.2,0000.0,0009.98,0004.89,0004.08
2022-07-06 19:04:00,,0828.3,5.00,0.00,30.4,28.1,00.0,38.9,31.8,33.9,0000.0,0009.58,0004.87,0004.09
2022-07-06 19:05:00,,0828.3,5.00,0.00,30.4,28.3,00.0,39.0,31.9,32.6,0000.0,0009.83,0004.80,0004.04
2022-07-06 19:06:00,,0828.3,5.01,0.00,30.4,28.4,00.0,39.0,31.9,31.2,0000.0,0009.96,0004.69,0003.97
2022-07-06 19:07:00,,0828.2,5.00,0.00,30.4,28.6,00.0,39.0,32.0,27.9,0000.0,0009.71,0004.55,0003.87
2022-07-06 19:08:00,,0828.3,5.01,0.00,30.4,28.4,00.0,38.9,32.0,28.1,0000.0,0009.46,0004.38,0003.76
2022-07-06 19:09:00,,0828.2,5.00,0.00,30.4,27.7,00.0,38.9,31.9,28.8,0000.0,0009.33,0004.25,0003.64
2022-07-06 19:10:00,,0828.2,5.00,0.00,30.4,27.4,00.0,38.9,31.8,28.8,0000.0,0009.34,0004.11,0003.53
2022-07-06 19:11:00,,0828.2,5.00,0.00,30.3,27.4,00.0,38.8,31.7,29.2,0000.0,0009.13,0003.99,0003.41
2022-07-06 19:12:00,,0828.2,5.00,0.00,30.2,27.5,00.0,38.8,31.6,28.9,0000.0,0008.93,0003.86,0003.31
2022-07-06 19:13:00,,0828.2,5.00,0.00,30.1,27.7,00.0,38.8,31.6,28.4,0000.0,0008.57,0003.72,0003.21
2022-07-06 19:14:00,,0828.2,5.00,0.00,30.1,27.8,00.0,38.8,31.7,28.9,0000.0,0008.32,0003.61,0003.09
2022-07-06 19:15:00,,0828.2,4.99,0.00,30.1,28.0,00.0,38.8,31.7,29.3,0000.0,0008.21,0003.57,0002.96
2022-07-06 19:16:00,,0828.2,5.00,0.00,30.1,28.2,00.0,38.8,31.8,29.4,0000.0,0007.27,0003.51,0002.88
2022-07-06 19:17:00,,0828.2,4.99,0.00,30.1,28.4,00.0,38.8,31.8,30.1,0000.0,0006.54,0003.46,0002.82
2022-07-06 19:18:00,,0828.2,5.00,0.00,30.1,28.5,00.0,38.8,31.9,29.9,0000.0,0006.45,0003.46,0002.84
2022-07-06 19:19:00,,0828.2,5.01,0.00,30.2,28.6,00.0,38.8,31.9,31.1,0000.0,0006.92,0003.54,0002.92
2022-07-06 19:20:00,,0828.2,5.00,0.00,30.2,28.2,00.0,38.8,31.9,30.1,0000.0,0007.03,0003.59,0002.98
2022-07-06 19:21:00,,0828.2,5.00,0.00,30.2,27.6,00.0,38.7,31.8,30.1,0000.0,0006.79,0003.65,0003.02
2022-07-06 19:22:00,,0828.2,5.00,0.00,30.1,27.4,00.0,38.7,31.7,31.0,0000.0,0006.87,0003.70,0003.10
2022-07-06 19:23:00,,0828.2,5.01,0.00,30.0,27.4,00.0,38.7,31.6,31.0,0000.0,0007.49,0003.74,0003.14
2022-07-06 19:24:00,,0828.1,5.00,0.00,30.0,27.5,00.0,38.7,31.5,31.7,0000.0,0008.30,0003.80,0003.17
2022-07-06 19:25:00,,0828.1,5.01,0.00,29.9,27.7,00.0,38.7,31.6,31.8,0000.0,0008.49,0003.81,0003.20
2022-07-06 19:26:00,,0828.1,5.00,0.00,29.9,27.9,00.0,38.6,31.6,32.0,0000.0,0008.62,0003.83,0003.24
2022-07-06 19:27:00,,0828.2,5.01,0.00,29.9,28.1,00.0,38.7,31.7,32.4,0000.0,0008.87,0003.85,0003.26
2022-07-06 19:28:00,,0828.1,5.00,0.00,30.0,28.3,00.0,38.7,31.7,33.0,0000.0,0009.28,0003.95,0003.31
2022-07-06 19:29:00,,0828.1,5.00,0.00,30.0,28.4,00.0,38.7,31.8,32.8,0000.0,0009.82,0004.04,0003.36
2022-07-06 19:30:00,,0828.1,5.00,0.00,30.0,28.6,00.0,38.7,31.8,32.5,0000.0,0009.97,0004.11,0003.41
2022-07-06 19:31:00,,0828.1,4.99,0.00,30.0,28.3,00.0,38.6,31.8,32.3,0000.0,0010.54,0004.21,0003.45
2022-07-06 19:32:00,,0828.1,5.00,0.00,30.0,27.7,00.0,38.6,31.7,32.9,0000.0,0011.01,0004.24,0003.51
2022-07-06 19:33:00,,0828.1,5.00,0.00,30.0,27.3,00.0,38.6,31.7,33.2,0000.0,0012.12,0004.28,0003.55
2022-07-06 19:34:00,,0828.1,4.99,0.00,29.9,27.3,00.0,38.6,31.5,33.1,0000.0,0013.14,0004.34,0003.58
2022-07-06 19:35:00,,0828.1,5.00,0.00,29.8,27.5,00.0,38.6,31.5,33.0,0000.0,0013.16,0004.42,0003.63
2022-07-06 19:36:00,,0828.1,4.99,0.00,29.8,27.6,00.0,38.5,31.5,32.7,0000.0,0013.46,0004.49,0003.67
2022-07-06 19:37:00,,0828.1,5.00,0.00,29.8,27.8,00.0,38.5,31.5,32.5,0000.0,0013.43,0004.52,0003.69
2022-07-06 19:38:00,,0828.1,4.99,0.00,29.8,28.0,00.0,38.5,31.6,32.5,0000.0,0013.53,0004.59,0003.72
2022-07-06 19:39:00,,0828.1,5.00,0.00,29.8,28.2,00.0,38.5,31.7,31.6,0000.0,0013.42,0004.59,0003.71
2022-07-06 19:40:00,,0828.1,5.00,0.00,29.8,28.3,00.0,38.6,31.7,32.0,0000.0,0013.21,0004.59,0003.69
2022-07-06 19:41:00,,0828.1,5.00,0.00,29.9,28.5,00.0,38.6,31.8,32.3,0000.0,0013.30,0004.58,0003.68
2022-07-06 19:42:00,,0828.1,4.99,0.00,29.9,28.6,00.0,38.6,31.8,32.2,0000.0,0012.91,0004.55,0003.68
2022-07-06 19:43:00,,0828.1,5.01,0.00,29.9,28.1,00.0,38.5,31.8,31.9,0000.0,0012.64,0004.59,0003.66
2022-07-06 19:44:00,,0828.1,5.00,0.00,29.9,27.6,00.0,38.5,31.7,31.9,0000.0,0011.93,0004.56,0003.63
2022-07-06 19:45:00,,0828.1,5.00,0.00,29.8,27.3,00.0,38.5,31.6,32.4,0000.0,0010.73,0004.50,0003.59
2022-07-06 19:46:00,,0828.1,5.01,0.00,29.8,27.4,00.0,38.5,31.4,33.1,0000.0,0010.12,0004.47,0003.57
2022-07-06 19:47:00,,0828.1,5.00,0.00,29.7,27.5,00.0,38.5,31.4,33.5,0000.0,0009.75,0004.48,0003.55
2022-07-06 19:48:00,,0828.1,5.00,0.00,29.7,27.7,00.0,38.4,31.5,34.2,0000.0,0010.00,0004.50,0003.55
2022-07-06 19:49:00,,0828.1,5.00,0.00,29.7,27.8,00.0,38.4,31.5,34.1,0000.0,0010.26,0004.54,0003.56
2022-07-06 19:50:00,,0828.1,5.00,0.00,29.7,28.0,00.0,38.4,31.5,34.2,0000.0,0010.40,0004.62,0003.59
2022-07-06 19:51:00,,0828.1,5.00,0.00,29.7,28.2,00.0,38.4,31.6,34.2,0000.0,0011.14,0004.64,0003.61
2022-07-06 19:52:00,,0828.1,5.01,0.00,29.7,28.4,00.0,38.5,31.7,34.1,0000.0,0012.68,0004.74,0003.64
2022-07-06 19:53:00,,0828.2,5.00,0.00,29.8,28.5,00.0,38.5,31.7,34.3,0000.0,0012.86,0004.79,0003.66
2022-07-06 19:54:00,,0828.1,5.00,0.00,29.8,28.6,00.0,38.5,31.7,34.3,0000.0,0012.82,0004.75,0003.68
2022-07-06 19:55:00,,0828.1,5.00,0.00,29.8,28.3,00.0,38.5,31.7,34.0,0000.0,0012.90,0004.76,0003.71
2022-07-06 19:56:00,,0828.1,5.01,0.00,29.8,27.6,00.0,38.4,31.7,34.1,0000.0,0013.26,0004.86,0003.76
2022-07-06 19:57:00,,0828.1,4.99,0.00,29.8,27.3,00.0,38.4,31.6,34.2,0000.0,0013.54,0004.92,0003.80
2022-07-06 19:58:00,,0828.2,5.01,0.00,29.7,27.3,00.0,38.4,31.4,33.6,0000.0,0015.77,0004.95,0003.80
2022-07-06 19:59:00,,0828.1,5.00,0.00,29.7,27.4,00.0,38.4,31.4,33.2,0000.0,0016.75,0004.95,0003.80
